Weather History for Fort Rucker / Ozark, AL

Change the Weather History Date:

Wednesday, November 28, 2012

  Actual Average (KDHN) Record (KDHN)
Temperature  
Mean Temperature 50 °F 55 °F  
Max Temperature 62 °F 67 °F 80 °F (1949)
Min Temperature 36 °F 43 °F 23 °F (1938)
Degree Days  
Heating Degree Days 16 10  
Month to date heating degree days 197  
Since 1 July heating degree days 256  
Moisture  
Dew Point 42 °F    
Average Humidity 75    
Maximum Humidity 93    
Minimum Humidity 39    
Precipitation  
Precipitation 0.00 in 0.17 in 2.49 in (1963)
Month to date precipitation 3.81  
Year to date precipitation 49.20  
Sea Level Pressure  
Sea Level Pressure 30.31 in    
Wind  
Wind Speed 6 mph (North)    
Max Wind Speed 10 mph    
Max Gust Speed 17 mph    
Visibility 7 miles    
Events      
T = Trace of Precipitation, MM = Missing Value Source: NWS Daily Summary

Daily Weather History Graph

Daily Weather History Graph

Search for Another Location

Airport:

Trip Planner

Search our weather history database for the weather conditions in past years. The results will help you decide how hot, cold, wet, or windy it might be!

Date:

Astronomy

Nov. 28, 2012 Rise Set
Actual Time 6:22 AM CST 4:40 PM CST
Civil Twilight 5:55 AM CST 5:06 PM CST
Nautical Twilight 5:25 AM CST 5:36 PM CST
Astronomical Twilight 4:56 AM CST 6:05 PM CST
Moon 4:54 PM CST (11/28) 6:19 AM CST (11/28)
Length of Visible Light 11h 10m
Length of Day
10h 17m
Full, 100% of the Moon is Illuminated
Nov 28
Full
Dec 6
Last Quarter
Dec 13
New
Dec 19
First Quarter
Dec 28
Full

Hourly Weather History & Observations

Time (CST) Temp. Dew Point Humidity Pressure Visibility Wind Dir Wind Speed Gust Speed Precip Events Conditions
12:53 AM 53.1 °F 51.1 °F 93% 30.23 in 5.0 mi North 5.8 mph - N/A   Overcast
1:53 AM 53.1 °F 50.0 °F 89% 30.24 in 4.0 mi North 5.8 mph - N/A   Overcast
2:53 AM 52.0 °F 48.9 °F 89% 30.26 in 5.0 mi North 10.4 mph - N/A   Overcast
3:53 AM 51.1 °F 48.9 °F 92% 30.27 in 3.0 mi NNW 5.8 mph - N/A   Overcast
4:46 AM 50.0 °F 46.4 °F 87% 30.27 in 4.0 mi NNW 8.1 mph - N/A   Overcast
4:53 AM 50.0 °F 46.9 °F 89% 30.27 in 4.0 mi North 6.9 mph - N/A   Overcast
5:53 AM 50.0 °F 46.0 °F 86% 30.30 in 5.0 mi North 3.5 mph - N/A   Overcast
6:53 AM 48.9 °F 44.1 °F 83% 30.31 in 8.0 mi North 8.1 mph - N/A   Overcast
7:53 AM 48.0 °F 42.1 °F 80% 30.34 in 8.0 mi NNW 6.9 mph - N/A   Overcast
8:53 AM 48.9 °F 41.0 °F 74% 30.37 in 9.0 mi North 8.1 mph - N/A   Overcast
9:53 AM 53.1 °F 41.0 °F 64% 30.37 in 10.0 mi Variable 5.8 mph - N/A   Mostly Cloudy
10:14 AM 53.6 °F 41.0 °F 62% 30.37 in 10.0 mi North 6.9 mph - N/A   Scattered Clouds
10:53 AM 55.0 °F 41.0 °F 59% 30.36 in 10.0 mi NNW 9.2 mph - N/A   Clear
11:53 AM 57.0 °F 39.0 °F 51% 30.33 in 10.0 mi NE 5.8 mph 17.3 mph N/A   Clear
12:53 PM 60.1 °F 37.9 °F 44% 30.30 in 10.0 mi NNE 9.2 mph - N/A   Clear
1:53 PM 62.1 °F 37.0 °F 39% 30.28 in 10.0 mi NNE 6.9 mph - N/A   Clear
2:53 PM 62.1 °F 37.0 °F 39% 30.28 in 10.0 mi Variable 5.8 mph - N/A   Clear
3:53 PM 60.1 °F 37.0 °F 42% 30.29 in 10.0 mi NNE 4.6 mph - N/A   Clear
4:53 PM 53.1 °F 39.9 °F 61% 30.30 in 10.0 mi NNE 3.5 mph - N/A   Clear
5:53 PM 46.0 °F 41.0 °F 83% 30.32 in 10.0 mi Calm Calm - N/A   Clear
6:53 PM 43.0 °F 39.9 °F 89% 30.34 in 8.0 mi Calm Calm - N/A   Clear
7:53 PM 43.0 °F 39.9 °F 89% 30.35 in 7.0 mi Calm Calm - N/A   Clear
8:53 PM 39.9 °F 37.9 °F 93% 30.37 in 5.0 mi Calm Calm - N/A   Clear
9:53 PM 39.0 °F 37.0 °F 93% 30.36 in 5.0 mi Calm Calm - N/A   Clear
10:53 PM 37.9 °F 36.0 °F 93% 30.36 in 5.0 mi Calm Calm - N/A   Clear
11:53 PM 36.0 °F 34.0 °F 93% 30.35 in 5.0 mi Calm Calm - N/A   Partly Cloudy